Flag for U.S.A. Weather past 2 weeks in Pierre, South Dakota, U.S.A.

Now
41 °F

Passing clouds.


Feels Like: 36 °F
Forecast: 27 / 47 °F
Wind: 7 mph from Southwest

Location: Pierre Regional Airport

Current Time: Mar 6, 2015 at 8:18:52 PM

Latest Report: Mar 6, 2015 at 7:53 PM


Visibility: 10 mi

Pressure: 30.06 "Hg

Humidity: 53%

Dew point: 25 °F

Location of PierreLocation

Historic Weather in Pierre — Graph

°F

Pierre temperature yesterday

Maximum temperature yesterday: 35 °F (at 4:53 PM)
Minimum temperature yesterday: -7 °F (at 4:53 AM)
Average temperature yesterday: 13 °F

Past Weeks' High & Low Weather Summary

 TemperatureHumidityPressure
High54 °F (Mar 6, 2:53 PM)100% (Mar 3, 1:53 AM)30.87 "Hg (Mar 3, 1:53 AM)
Low-8 °F (Feb 27, 5:53 AM)23% (Feb 27, 3:53 PM)29.67 "Hg (Mar 3, 2:53 AM)
Average19 °F64%30.26 "Hg
* Reported Feb 19 6:53 PM — Mar 6 6:53 PM, Pierre, Weather by CustomWeather, © 2015

Note: Actual official high and low records may vary slightly from our data, if they occured in-between our weather recording intervals... More about our weather records

Advertising

Pierre weather history for previous 24 hours

 ConditionsComfort  
Time TempWeatherWind HumidityBarometerVisibility
6:53 PM
Fri, Mar 6
43 °FClear.No wind47%30.05 "Hg10 mi
5:53 PM48 °FSunny.8 mph41%30.04 "Hg10 mi
4:53 PM53 °FSunny.9 mph35%30.05 "Hg10 mi
3:53 PM53 °FOvercast.9 mph32%30.08 "Hg10 mi
2:53 PM54 °FPassing clouds.8 mph29%30.09 "Hg10 mi
1:53 PM49 °FPassing clouds.3 mph33%30.12 "Hg10 mi
12:53 PM48 °FSunny.6 mph34%30.16 "Hg10 mi
11:53 AM44 °FSunny.6 mph40%30.18 "Hg10 mi
10:53 AM39 °FScattered clouds.7 mph46%30.19 "Hg10 mi
9:53 AM36 °FScattered clouds.10 mph50%30.20 "Hg10 mi
8:53 AM31 °FPassing clouds.6 mph61%30.20 "Hg10 mi
7:53 AM27 °FSunny.12 mph69%30.17 "Hg10 mi
6:53 AM25 °FPassing clouds.10 mph72%30.16 "Hg10 mi
5:53 AM27 °FOvercast.12 mph72%30.14 "Hg10 mi
4:53 AM27 °FOvercast.12 mph69%30.12 "Hg10 mi
3:53 AM27 °FOvercast.10 mph66%30.13 "Hg10 mi
2:53 AM24 °FPassing clouds.9 mph68%30.15 "Hg10 mi
1:53 AM27 °FOvercast.7 mph63%30.15 "Hg10 mi
12:53 AM23 °FPassing clouds.7 mph72%30.17 "Hg10 mi
11:53 PM
Thu, Mar 5
24 °FClear.7 mph75%30.18 "Hg10 mi
10:53 PM25 °FClear.8 mph75%30.19 "Hg10 mi
9:53 PM25 °FClear.5 mph72%30.19 "Hg10 mi
8:53 PM20 °FClear.5 mph82%30.21 "Hg10 mi
Weather by CustomWeather, © 2015

See weather overviewHow to use our weather pages